Wind_Speed
16 16 20 19 16 18 21 21 17 17 15 17 20 20 20 21 22 21 20 20 21 21 20 20 20 20 20 20 19 18 16 15 14 15 14 15 16 17
14 14 15 16 15 17 16 18 17 20 20 21 23 25 22 20 23 24 25 23 22 22 23 22 22 22 23 22 22 20 18 17 17 17 17 18 18 18
17 15 16 17 15 17 18 18 22 24 25 21 21 26 23 24 25 24 27 26 25 25 24 23 24 24 24 23 24 23 22 20 19 18 19 20 20 19
17 18 22 21 18 20 21 23 23 28 31 29 21 24 26 29 31 29 25 25 28 30 29 26 27 27 27 26 25 24 23 23 22 22 22 22 22 21
13 15 19 21 20 21 21 22 25 27 27 28 31 17 23 29 32 34 30 28 27 26 25 28 30 31 31 29 28 27 27 26 27 27 26 25 23 21
9 11 14 16 18 18 19 18 18 20 27 24 20 22 22 32 22 31 32 31 31 30 29 30 30 27 27 26 26 27 29 29 28 28 28 26 23 22
14 14 11 13 15 16 16 17 20 21 22 28 27 22 21 27 26 23 28 37 33 33 34 32 32 31 31 31 30 30 30 30 29 27 26 26 24 23
16 16 16 15 13 15 17 18 20 18 22 24 25 24 26 30 31 26 25 31 36 34 35 35 34 32 33 32 33 33 33 32 31 31 31 31 29 28
16 16 15 17 16 16 16 17 17 21 24 23 28 26 27 24 30 29 30 29 31 35 34 35 34 34 35 34 36 36 34 32 29 27 29 32 34 31
14 16 16 16 15 16 15 14 15 18 23 27 30 30 29 33 28 31 31 32 30 26 30 31 32 33 35 38 40 41 39 35 30 28 26 31 31 31
20 18 17 18 17 16 16 15 13 14 12 18 25 30 30 31 31 33 25 24 29 30 27 30 32 33 33 32 31 37 41 35 30 33 31 27 30 31
23 21 20 19 20 20 18 15 14 15 15 18 20 22 22 27 29 33 30 27 27 27 25 28 30 31 32 32 31 29 40 40 35 33 32 33 32 32
24 24 21 19 20 20 22 23 20 19 19 20 19 21 20 18 29 35 32 33 29 28 27 27 29 30 30 38 36 30 28 28 30 33 38 38 36 34
27 23 23 21 22 25 24 24 26 25 24 24 24 23 21 23 26 30 30 28 28 30 31 32 31 33 31 30 27 29 29 30 32 37 39 37 38 38
28 25 21 20 20 23 24 23 24 27 28 28 29 30 28 26 25 26 29 34 36 34 34 38 38 37 33 28 30 32 33 35 37 40 41 39 36 38
34 27 25 27 28 27 28 26 25 28 32 32 34 34 33 34 34 34 33 33 35 35 37 39 41 40 39 38 39 37 37 39 39 41 44 43 42 41
34 32 27 29 35 30 31 28 28 32 30 31 35 39 37 36 38 37 37 38 38 38 40 42 42 41 42 43 43 42 43 43 44 46 44 45 46 46
33 36 42 38 37 35 35 31 29 30 29 29 30 35 40 39 42 42 40 38 39 40 40 41 40 41 44 45 45 45 46 46 47 48 47 47 49 50
25 24 26 24 33 38 31 27 28 28 30 27 27 30 35 39 40 43 42 40 42 42 43 44 44 43 45 46 47 47 45 45 45 41 41 43 43 45
21 20 21 16 11 15 22 25 27 28 29 29 31 30 31 37 42 46 46 47 48 49 48 48 49 50 50 52 51 48 48 48 46 45 43 44 46 52
23 22 21 21 21 23 23 24 23 25 25 26 27 29 28 30 33 33 33 36 39 44 43 43 42 50 55 56 57 50 47 47 47 45 45 44 48 47
27 25 24 22 22 22 23 24 23 22 24 25 26 26 28 30 32 35 37 33 36 41 42 41 42 41 40 35 41 51 48 51 48 45 46 47 46 44
24 24 26 27 25 24 23 24 23 23 23 21 22 20 20 23 26 30 30 31 30 30 37 40 41 38 39 44 41 40 43 51 53 53 54 56 53 46
Wind_Direction
263 249 232 242 252 244 247 233 220 230 244 222 229 223 221 224 225 221 217 211 209 209 210 209 209 209 214 220 225 228 228 225 224 227 227 230 235 243
255 244 245 249 251 262 250 249 240 244 240 224 234 229 224 222 227 219 221 217 218 217 218 215 218 220 216 218 222 225 228 231 233 234 236 241 247 256
263 260 257 251 255 260 249 257 252 247 240 236 231 225 224 232 231 225 219 222 222 222 225 226 226 228 232 233 233 231 230 229 236 243 248 248 250 256
262 261 258 252 259 265 267 261 260 262 247 228 226 229 231 232 233 230 221 213 221 225 227 228 232 233 234 234 237 240 241 243 243 244 244 246 250 253
271 265 259 258 258 258 261 263 269 260 239 240 234 241 235 241 238 227 230 229 222 224 225 230 235 238 239 238 239 240 242 243 246 248 247 248 248 246
291 281 268 261 260 261 260 256 275 271 233 237 241 252 251 226 234 231 227 228 229 231 228 231 232 232 233 235 235 235 235 239 241 243 243 241 235 239
290 288 284 268 261 254 254 251 260 275 252 230 231 243 244 241 238 241 242 234 230 228 231 230 234 235 236 236 236 236 236 237 239 242 242 236 237 238
287 287 286 285 279 260 249 253 253 253 253 240 236 251 255 251 238 233 233 249 243 233 231 232 234 233 236 235 236 239 241 241 241 242 240 236 238 239
288 294 296 285 276 276 274 258 251 240 242 237 248 255 253 233 256 234 234 238 237 240 241 238 236 239 242 240 238 235 235 238 240 243 245 242 240 242
270 283 288 292 290 283 275 279 270 260 254 249 252 249 255 252 256 233 239 228 232 245 248 243 245 246 248 249 249 248 236 225 231 241 250 243 242 243
257 261 267 277 281 282 287 282 266 264 278 250 242 253 249 260 243 250 242 234 242 259 261 248 239 237 244 247 252 251 247 232 232 241 247 244 238 244
252 255 262 266 268 271 272 271 280 273 265 263 260 261 261 244 243 229 242 239 247 244 242 243 241 244 248 245 249 249 246 237 227 233 241 241 244 249
246 251 253 261 267 270 264 268 267 268 269 264 260 254 249 243 231 235 234 240 242 233 235 239 248 248 252 246 239 245 241 243 244 246 247 249 249 251
248 253 252 260 259 257 267 269 259 253 258 260 259 255 244 240 237 237 238 237 247 245 237 242 244 251 254 254 247 240 244 249 252 252 252 253 255 259
245 249 245 251 257 263 261 262 266 260 255 254 256 254 248 246 239 236 240 242 244 242 239 242 249 249 246 246 248 246 248 249 251 256 259 259 261 261
233 245 251 245 249 253 259 261 260 268 266 264 258 256 253 247 242 240 239 238 237 240 242 244 247 247 250 253 250 252 253 252 253 255 259 262 262 263
243 244 258 252 247 248 252 257 257 259 265 268 262 252 252 252 250 247 246 246 245 246 248 250 252 252 253 254 254 253 256 257 258 259 259 263 265 264
264 263 261 256 242 248 247 252 259 265 268 269 263 257 253 255 256 257 256 253 252 253 253 254 256 260 259 259 260 260 262 263 263 262 263 263 263 263
259 272 271 256 234 239 242 250 256 263 259 266 265 257 255 254 255 255 258 259 259 259 261 264 263 262 262 262 262 263 264 263 266 263 262 261 258 267
258 267 279 282 250 251 258 263 269 274 272 270 262 263 261 256 256 254 254 256 253 255 256 257 260 259 261 262 264 266 268 268 264 258 257 259 264 267
270 272 268 263 255 256 264 269 271 273 277 277 273 270 272 263 261 261 261 262 262 261 261 258 266 273 263 260 260 259 259 264 266 266 261 266 267 274
261 268 270 267 264 263 263 264 268 270 268 268 272 269 263 265 265 270 273 283 269 262 260 265 275 276 275 272 277 266 258 260 257 260 262 260 261 267
259 259 258 261 264 264 266 269 272 271 270 272 276 276 275 278 275 278 277 279 281 276 269 270 272 272 276 273 270 268 257 266 265 263 262 266 265 263
Height
5891 5891 5892 5894 5896 5896 5897 5897 5899 5902 5903 5905 5907 5908 5910 5912 5915 5917 5918 5921 5923 5924 5926 5927 5930 5932 5934 5936 5938 5940 5941 5942 5943 5945 5946 5947 5947 5948
5887 5888 5889 5891 5892 5893 5893 5894 5895 5898 5900 5902 5902 5904 5906 5908 5910 5913 5915 5916 5919 5922 5924 5925 5927 5929 5930 5932 5934 5936 5938 5940 5942 5943 5944 5945 5945 5946
5884 5884 5885 5887 5889 5890 5889 5891 5892 5894 5895 5896 5896 5899 5903 5905 5905 5908 5910 5913 5915 5918 5920 5922 5925 5927 5928 5930 5932 5933 5934 5936 5938 5939 5940 5941 5941 5942
5878 5878 5878 5881 5883 5884 5886 5886 5887 5887 5888 5889 5893 5895 5898 5901 5903 5904 5906 5906 5909 5911 5914 5917 5920 5922 5923 5924 5927 5929 5931 5933 5933 5934 5934 5935 5936 5937
5875 5874 5874 5875 5876 5877 5879 5881 5880 5879 5880 5883 5883 5889 5891 5893 5896 5899 5900 5901 5903 5905 5907 5910 5913 5916 5918 5920 5922 5924 5925 5927 5928 5928 5929 5929 5930 5932
5871 5870 5870 5870 5870 5872 5872 5873 5874 5874 5875 5878 5881 5882 5884 5886 5890 5892 5895 5897 5899 5900 5902 5905 5907 5909 5912 5913 5915 5916 5917 5918 5920 5922 5922 5923 5924 5925
5868 5868 5868 5866 5866 5866 5867 5867 5868 5868 5869 5872 5876 5878 5879 5880 5884 5885 5888 5889 5890 5894 5896 5898 5900 5903 5905 5906 5908 5909 5910 5911 5913 5915 5917 5919 5919 5920
5865 5864 5863 5863 5862 5861 5861 5862 5863 5863 5865 5868 5870 5871 5873 5873 5875 5878 5880 5881 5882 5887 5889 5891 5892 5895 5896 5899 5900 5901 5903 5905 5906 5907 5909 5912 5913 5914
5861 5860 5859 5859 5859 5859 5858 5857 5857 5858 5859 5861 5863 5866 5868 5868 5869 5870 5872 5874 5878 5879 5881 5883 5886 5888 5890 5892 5892 5893 5895 5897 5900 5901 5903 5904 5906 5907
5853 5853 5854 5854 5854 5855 5854 5854 5854 5854 5853 5854 5855 5858 5858 5860 5862 5863 5862 5869 5872 5876 5876 5875 5878 5881 5882 5883 5884 5884 5884 5885 5892 5895 5895 5896 5897 5899
5847 5847 5846 5847 5849 5850 5850 5849 5849 5848 5848 5848 5849 5850 5850 5852 5855 5858 5860 5862 5866 5867 5867 5869 5871 5873 5875 5875 5876 5877 5879 5881 5884 5887 5888 5889 5889 5891
5840 5841 5841 5841 5842 5843 5844 5843 5844 5843 5843 5843 5844 5844 5843 5843 5846 5850 5853 5856 5858 5858 5860 5861 5863 5866 5867 5868 5869 5870 5872 5873 5871 5876 5879 5881 5883 5884
5832 5832 5831 5833 5836 5837 5837 5836 5837 5837 5838 5839 5838 5838 5837 5838 5840 5842 5845 5847 5849 5851 5852 5854 5856 5858 5859 5860 5860 5862 5863 5864 5866 5868 5870 5872 5874 5875
5826 5826 5825 5825 5827 5829 5830 5829 5829 5830 5830 5831 5832 5833 5832 5832 5833 5835 5837 5839 5841 5842 5845 5847 5848 5849 5851 5852 5852 5851 5854 5857 5859 5859 5859 5861 5863 5865
5820 5819 5819 5818 5819 5820 5822 5822 5821 5822 5824 5823 5823 5824 5824 5825 5827 5828 5829 5830 5831 5832 5835 5837 5839 5841 5843 5845 5846 5846 5848 5849 5849 5850 5849 5850 5853 5854
5807 5808 5808 5809 5810 5811 5812 5813 5813 5812 5814 5814 5816 5817 5817 5817 5819 5819 5820 5820 5822 5823 5824 5826 5827 5829 5831 5834 5836 5837 5838 5839 5839 5838 5838 5840 5840 5841
5797 5798 5798 5799 5800 5801 5803 5804 5804 5803 5802 5803 5802 5803 5807 5810 5811 5812 5813 5812 5813 5813 5814 5815 5817 5819 5820 5823 5825 5826 5827 5828 5828 5827 5827 5827 5827 5828
5787 5785 5785 5787 5789 5791 5793 5793 5796 5795 5793 5792 5791 5792 5795 5798 5799 5800 5801 5803 5803 5802 5803 5804 5806 5808 5810 5811 5813 5813 5815 5816 5816 5814 5815 5816 5814 5813
5778 5776 5774 5774 5777 5780 5781 5784 5784 5783 5784 5783 5781 5781 5783 5785 5788 5789 5790 5791 5791 5792 5793 5793 5796 5797 5798 5798 5798 5799 5801 5801 5801 5802 5802 5801 5801 5800
5770 5768 5769 5767 5768 5773 5775 5774 5774 5774 5774 5773 5772 5771 5770 5771 5774 5776 5776 5777 5778 5777 5778 5779 5780 5779 5779 5779 5780 5783 5782 5782 5785 5788 5786 5786 5787 5786
5763 5763 5763 5762 5764 5765 5765 5765 5766 5766 5764 5762 5760 5761 5760 5761 5761 5761 5762 5764 5763 5763 5762 5764 5764 5762 5763 5763 5764 5765 5766 5766 5768 5771 5772 5771 5772 5772
5758 5756 5755 5755 5755 5756 5756 5756 5755 5754 5754 5752 5751 5750 5751 5750 5750 5751 5751 5750 5751 5750 5749 5749 5748 5749 5749 5749 5749 5749 5750 5751 5753 5755 5756 5757 5758 5758
5749 5748 5748 5748 5747 5746 5745 5745 5745 5745 5745 5743 5742 5743 5740 5741 5741 5740 5739 5738 5737 5735 5735 5735 5734 5734 5736 5736 5735 5734 5736 5736 5737 5739 5740 5740 5740 5741